INSAT-3DR

Last updated on Sun Apr 12 2026 00:02:26 GMT+0000 (Coordinated Universal Time)

1 41752U 16054A 26101.46408840 -.00000076 00000+0 00000+0 0 9991 2 41752 0.0751 85.4034 0011728 196.4225 158.9521 1.00272018 35141
UTC large
Height (km)
Speed (km/s)
/
Latitude / Longitude
Inclination (degrees)
Orbital Period (minutes)
Azimuth
Elevation
Range (km)
Doppler Factor

Next 0 passes for location: London (51.5072 / 0.1276)

Sorry there are no passes over London.
INSAT-3DR